Weather History for KGVL - December, 2011

Change the Weather History Date:

Friday, December 30, 2011

  Actual Average Record
Temperature  
Mean Temperature 46 °F 42 °F  
Max Temperature 57 °F 50 °F 73 °F (1984)
Min Temperature 35 °F 33 °F 11 °F (1983)
Degree Days  
Heating Degree Days 19 24  
Month to date heating degree days 637  
Since 1 July heating degree days 1172  
Moisture  
Dew Point 42 °F    
Average Humidity 88    
Maximum Humidity 100    
Minimum Humidity 70    
Precipitation  
Precipitation 0.00 in 0.09 in 1.10 in (2007)
Month to date precipitation 4.41  
Year to date precipitation 53.89  
Sea Level Pressure  
Sea Level Pressure 30.01 in    
Wind  
Wind Speed 1 mph (SSW)    
Max Wind Speed 7 mph    
Max Gust Speed -    
Visibility 7 miles    
Events Rain    
T = Trace of Precipitation, MM = Missing Value Source: NWS Daily Summary

Daily Weather History Graph

Daily Weather History Graph

Search for Another Location

Airport or City:

Trip Planner

Search our weather history database for the weather conditions in past years. The results will help you decide how hot, cold, wet, or windy it might be!

Date:

Astronomy

Dec. 30, 2011 Rise Set
Actual Time 7:40 AM EST 5:34 PM EST
Civil Twilight 7:13 AM EST 6:02 PM EST
Nautical Twilight 6:41 AM EST 6:33 PM EST
Astronomical Twilight 6:11 AM EST 7:04 PM EST
Moon 11:16 AM EST (12/30) 11:50 PM EST (12/30)
Length of Visible Light 10h 49m
Length of Day
9h 53m
Waxing Crescent, 35% of the Moon is Illuminated
Dec 30
Waxing Crescent
Jan 1
First Quarter
Jan 9
Full
Jan 16
Last Quarter
Jan 23
New

Hourly Weather History & Observations

Time (EST) Temp. Windchill Dew Point Humidity Pressure Visibility Wind Dir Wind Speed Gust Speed Precip Events Conditions
12:53 AM 39.0 °F - 35.1 °F 86% 30.05 in 10.0 mi Calm Calm - N/A   Clear
1:53 AM 39.9 °F - 34.0 °F 79% 30.04 in 10.0 mi Calm Calm - N/A   Clear
2:53 AM 39.0 °F - 32.0 °F 76% 30.06 in 10.0 mi Calm Calm - N/A   Clear
3:53 AM 36.0 °F - 33.1 °F 89% 30.07 in 10.0 mi Calm Calm - N/A   Clear
4:53 AM 37.0 °F - 34.0 °F 89% 30.07 in 10.0 mi Calm Calm - N/A   Partly Cloudy
5:53 AM 36.0 °F - 33.1 °F 89% 30.08 in 10.0 mi Calm Calm - N/A   Overcast
6:42 AM 35.6 °F - 33.8 °F 93% 30.07 in 10.0 mi Calm Calm - N/A   Mostly Cloudy
6:51 AM 35.6 °F - 33.8 °F 93% 30.07 in 10.0 mi Calm Calm - N/A   Overcast
7:27 AM 35.6 °F - 33.8 °F 93% 30.08 in 10.0 mi Calm Calm - N/A   Mostly Cloudy
7:53 AM 37.0 °F - 34.0 °F 89% 30.08 in 10.0 mi Calm Calm - N/A   Mostly Cloudy
8:53 AM 41.0 °F - 37.0 °F 86% 30.09 in 10.0 mi Calm Calm - N/A   Mostly Cloudy
9:53 AM 44.1 °F - 39.9 °F 85% 30.09 in 8.0 mi Calm Calm - N/A   Overcast
10:02 AM 44.6 °F - 39.2 °F 81% 30.09 in 10.0 mi Calm Calm - N/A   Overcast
10:53 AM 44.1 °F - 41.0 °F 89% 30.10 in 7.0 mi Calm Calm - 0.00 in Rain Light Rain
11:53 AM 46.9 °F - 45.0 °F 93% 30.06 in 9.0 mi West 3.5 mph - 0.00 in   Overcast
12:40 PM 48.2 °F - 46.4 °F 93% 30.04 in 9.0 mi SW 5.8 mph - 0.00 in   Overcast
1:03 PM 50.0 °F - 46.4 °F 87% 30.03 in 7.0 mi SW 5.8 mph - 0.00 in Rain Light Rain
1:53 PM 51.1 °F - 46.9 °F 86% 29.99 in 10.0 mi South 5.8 mph - 0.00 in   Overcast
2:26 PM 53.6 °F - 48.2 °F 82% 29.98 in 10.0 mi SSW 4.6 mph - N/A   Overcast
2:53 PM 55.9 °F - 48.0 °F 75% 29.97 in 10.0 mi SSE 4.6 mph - N/A   Mostly Cloudy
3:53 PM 57.0 °F - 48.0 °F 72% 29.97 in 10.0 mi SE 6.9 mph - N/A   Overcast
4:53 PM 57.9 °F - 48.0 °F 70% 29.94 in 10.0 mi South 5.8 mph - N/A   Partly Cloudy
5:53 PM 57.0 °F - 48.0 °F 72% 29.96 in 10.0 mi South 3.5 mph - N/A   Overcast
6:53 PM 54.0 °F - 48.0 °F 80% 29.97 in 10.0 mi Calm Calm - N/A   Mostly Cloudy
7:53 PM 51.1 °F - 46.9 °F 86% 29.97 in 9.0 mi ENE 3.5 mph - N/A   Mostly Cloudy
8:53 PM 48.9 °F - 46.9 °F 93% 29.99 in 7.0 mi Calm Calm - N/A   Mostly Cloudy
9:53 PM 48.0 °F - 46.0 °F 93% 29.98 in 5.0 mi Calm Calm - N/A   Clear
10:40 PM 46.4 °F - 46.4 °F 100% 29.98 in 2.5 mi Calm Calm - N/A   Clear
10:53 PM 46.0 °F - 45.0 °F 96% 29.98 in 2.0 mi Calm Calm - N/A   Clear
10:55 PM 46.4 °F - 44.6 °F 93% 29.98 in 1.5 mi Calm Calm - N/A   Clear
10:59 PM 46.4 °F - 44.6 °F 93% 29.98 in 0.8 mi Calm Calm - N/A   Clear
11:08 PM 46.4 °F - 44.6 °F 93% 29.97 in 1.2 mi Calm Calm - N/A   Clear
11:22 PM 46.4 °F - 44.6 °F 93% 29.97 in 1.0 mi Calm Calm - N/A   Clear
11:25 PM 46.4 °F - 44.6 °F 93% 29.97 in 0.8 mi Calm Calm - N/A   Mist
11:28 PM 46.4 °F - 44.6 °F 93% 29.97 in 1.0 mi Calm Calm - N/A   Clear
11:34 PM 46.4 °F - 44.6 °F 93% 29.97 in 1.8 mi Calm Calm - N/A   Clear
11:37 PM 46.4 °F - 44.6 °F 93% 29.97 in 3.0 mi Calm Calm - N/A   Clear
11:53 PM 44.1 °F 42.5 °F 43.0 °F 96% 29.96 in 3.0 mi SW 3.5 mph - N/A   Clear
11:55 PM 44.6 °F 43.1 °F 42.8 °F 93% 29.97 in 2.0 mi WSW 3.5 mph - N/A   Clear
11:57 PM 42.8 °F 41.1 °F 42.8 °F 100% 29.97 in 1.2 mi SW 3.5 mph - N/A   Clear
11:59 PM 44.6 °F 43.1 °F 44.6 °F 100% 29.97 in 0.8 mi WSW 3.5 mph - N/A   Clear